AFR454 LFPG-SBGR

Flight info

Callsign AFR454
Flight time N/A
Altitude 31000
Route ERIXU DCT ARKIP DCT BALAN DCT FOUCO DCT OSMOB DCT BIDAC DCT ARVID T424 PPN N10 NOLSA N857 MONTO/N0488F330 N857 KORNO UN857 TERTO N857 LZR N871 GDV N873 ODEGI/N0492F340 N873 IPERA UN873 TASIL/N0487F360 UN873 NTL DCT OPTUR DCT ASGIK UZ21 VUNOX
Aircraft B77W/H-SDE1E2E3FGHIJ2J3J4J5M1RWXY/LB1D1

Departure

Time 2026-05-08 20:36
Airport Charles de Gaulle International Airport (LFPG)

Arrival

Time N/A
Airport São Paulo/Guarulhos–Governor André Franco Montoro International Airport (SBGR)
Time Latitude Longitude Altitude Speed Heading
2026-05-08 20:07 49.00211 2.58625 358 ft 0 kts 264°
2026-05-08 20:22 49.00212 2.58637 358 ft 4 kts 264°
2026-05-08 20:23 49.00215 2.58679 361 ft 4 kts 264°
2026-05-08 20:23 49.00217 2.58710 367 ft 4 kts 260°
2026-05-08 20:23 49.00223 2.58744 365 ft 4 kts 233°
2026-05-08 20:23 49.00231 2.58758 362 ft 4 kts 184°
2026-05-08 20:24 49.00254 2.58757 363 ft 4 kts 175°
2026-05-08 20:24 49.00265 2.58755 362 ft 0 kts 175°
2026-05-08 20:26 49.00264 2.58755 362 ft 1 kts 176°
2026-05-08 20:26 49.00249 2.58756 364 ft 3 kts 179°
2026-05-08 20:26 49.00219 2.58757 362 ft 5 kts 177°
2026-05-08 20:27 49.00174 2.58761 358 ft 7 kts 176°
2026-05-08 20:27 49.00136 2.58765 358 ft 0 kts 176°
2026-05-08 20:28 49.00097 2.58767 359 ft 12 kts 185°
2026-05-08 20:29 49.00037 2.58673 361 ft 14 kts 256°
2026-05-08 20:29 49.00023 2.58517 359 ft 15 kts 264°
2026-05-08 20:29 49.00014 2.58352 365 ft 16 kts 265°
2026-05-08 20:29 49.00005 2.58170 359 ft 18 kts 265°
2026-05-08 20:30 48.99995 2.57978 360 ft 19 kts 265°
2026-05-08 20:30 48.99984 2.57772 364 ft 20 kts 265°
2026-05-08 20:30 48.99972 2.57555 364 ft 21 kts 265°
2026-05-08 20:30 48.99960 2.57326 365 ft 22 kts 265°
2026-05-08 20:31 48.99947 2.57089 365 ft 22 kts 265°
2026-05-08 20:31 48.99933 2.56852 359 ft 22 kts 265°
2026-05-08 20:31 48.99922 2.56615 360 ft 22 kts 265°
2026-05-08 20:31 48.99909 2.56378 363 ft 22 kts 266°
2026-05-08 20:32 48.99897 2.56141 361 ft 22 kts 265°
2026-05-08 20:32 48.99896 2.55926 359 ft 18 kts 281°
2026-05-08 20:32 48.99920 2.55776 365 ft 14 kts 288°
2026-05-08 20:32 48.99937 2.55648 361 ft 12 kts 257°
2026-05-08 20:33 48.99896 2.55602 368 ft 7 kts 159°
2026-05-08 20:33 48.99859 2.55656 367 ft 8 kts 126°
2026-05-08 20:33 48.99834 2.55744 363 ft 10 kts 110°
2026-05-08 20:33 48.99775 2.55798 365 ft 11 kts 168°
2026-05-08 20:34 48.99666 2.55818 364 ft 18 kts 175°
2026-05-08 20:34 48.99604 2.55896 365 ft 11 kts 93°
2026-05-08 20:34 48.99612 2.56056 361 ft 35 kts 85°
2026-05-08 20:35 48.99650 2.56771 360 ft 101 kts 85°
2026-05-08 20:35 48.99723 2.58144 365 ft 157 kts 85°
2026-05-08 20:35 48.99828 2.60060 400 ft 192 kts 84°
2026-05-08 20:35 48.99927 2.62069 830 ft 196 kts 84°
2026-05-08 20:36 49.00039 2.64164 1413 ft 194 kts 85°
2026-05-08 20:36 49.00143 2.66151 2071 ft 190 kts 85°
2026-05-08 20:36 49.00254 2.68250 2190 ft 208 kts 85°
2026-05-08 20:36 49.00376 2.70540 2372 ft 226 kts 85°
2026-05-08 20:37 49.00505 2.73004 2597 ft 242 kts 85°
2026-05-08 20:37 49.00639 2.75601 3016 ft 251 kts 85°
2026-05-08 20:37 49.00737 2.78290 3497 ft 255 kts 94°
2026-05-08 20:37 49.00510 2.80991 4012 ft 259 kts 100°
2026-05-08 20:38 49.00180 2.83698 4620 ft 261 kts 101°
2026-05-08 20:38 48.99858 2.86440 5196 ft 264 kts 100°
2026-05-08 20:38 48.99550 2.89219 5743 ft 267 kts 100°
2026-05-08 20:38 48.99248 2.92033 6275 ft 272 kts 100°
2026-05-08 20:39 48.98946 2.94895 6775 ft 275 kts 100°
2026-05-08 20:39 48.98482 2.97675 7159 ft 276 kts 120°
2026-05-08 20:39 48.97204 2.99825 7521 ft 278 kts 151°
2026-05-08 20:39 48.95390 3.00750 8015 ft 276 kts 178°
2026-05-08 20:40 48.93504 3.00348 8501 ft 275 kts 204°
2026-05-08 20:40 48.91943 2.98706 8988 ft 275 kts 230°
2026-05-08 20:40 48.90999 2.96206 9472 ft 274 kts 251°
2026-05-08 20:40 48.90414 2.93435 9908 ft 278 kts 252°
2026-05-08 20:41 48.89839 2.90610 10349 ft 283 kts 252°
2026-05-08 20:41 48.89239 2.87655 10493 ft 301 kts 252°
2026-05-08 20:41 48.88601 2.84535 10643 ft 318 kts 252°
2026-05-08 20:41 48.87925 2.81224 10781 ft 337 kts 252°
2026-05-08 20:42 48.87213 2.77736 10997 ft 353 kts 252°
2026-05-08 20:42 48.86463 2.74126 11425 ft 363 kts 252°
2026-05-08 20:42 48.85663 2.70469 11983 ft 366 kts 247°
2026-05-08 20:42 48.84239 2.67238 12432 ft 375 kts 222°
2026-05-08 20:43 48.82000 2.65213 13142 ft 378 kts 201°
2026-05-08 20:43 48.79502 2.63928 13737 ft 383 kts 200°
2026-05-08 20:43 48.76965 2.62588 14305 ft 389 kts 200°
2026-05-08 20:43 48.74399 2.61214 15021 ft 390 kts 201°
2026-05-08 20:44 48.71832 2.59835 15744 ft 392 kts 201°
2026-05-08 20:44 48.69281 2.58462 16401 ft 396 kts 201°
2026-05-08 20:44 48.66667 2.57055 17045 ft 400 kts 201°
2026-05-08 20:44 48.64038 2.55640 17690 ft 403 kts 201°
2026-05-08 20:45 48.61382 2.54212 18345 ft 407 kts 202°
2026-05-08 20:45 48.59609 2.53259 18714 ft 409 kts 202°
2026-05-08 20:45 48.55999 2.51319 19373 ft 416 kts 201°
2026-05-08 20:45 48.53247 2.49841 19845 ft 421 kts 201°
2026-05-08 20:46 48.50475 2.48355 20330 ft 425 kts 201°
2026-05-08 20:46 48.47668 2.46852 20817 ft 430 kts 201°
2026-05-08 20:46 48.44839 2.45339 21307 ft 434 kts 201°
2026-05-08 20:46 48.41976 2.43810 21789 ft 438 kts 201°
2026-05-08 20:47 48.39087 2.42268 22251 ft 443 kts 201°
2026-05-08 20:47 48.37152 2.41237 22553 ft 446 kts 201°
2026-05-08 20:47 48.34211 2.39672 23017 ft 450 kts 200°
2026-05-08 20:47 48.31248 2.38096 23474 ft 454 kts 200°
2026-05-08 20:48 48.28252 2.36505 23857 ft 458 kts 200°
2026-05-08 20:48 48.25236 2.34905 24289 ft 461 kts 200°
2026-05-08 20:48 48.22202 2.33298 24748 ft 462 kts 200°
2026-05-08 20:48 48.19161 2.31688 25176 ft 464 kts 200°
2026-05-08 20:49 48.16109 2.30075 25596 ft 466 kts 200°
2026-05-08 20:49 48.13035 2.28451 25993 ft 469 kts 200°
2026-05-08 20:49 48.09957 2.26828 26366 ft 471 kts 200°
2026-05-08 20:49 48.06893 2.25224 26749 ft 473 kts 200°
2026-05-08 20:50 48.03764 2.23639 27147 ft 476 kts 199°
2026-05-08 20:50 48.00616 2.22074 27527 ft 478 kts 199°
2026-05-08 20:50 47.97446 2.20508 27885 ft 480 kts 199°
2026-05-08 20:50 47.94273 2.18938 28224 ft 482 kts 199°
2026-05-08 20:51 47.91094 2.17362 28568 ft 484 kts 199°
2026-05-08 20:51 47.87877 2.15765 28895 ft 486 kts 199°
2026-05-08 20:51 47.84664 2.14168 29189 ft 488 kts 199°
2026-05-08 20:51 47.81441 2.12567 29528 ft 488 kts 199°
2026-05-08 20:52 47.78217 2.10969 29993 ft 486 kts 199°
2026-05-08 20:52 47.75012 2.09382 30415 ft 484 kts 199°
2026-05-08 20:52 47.71822 2.07804 30809 ft 481 kts 199°
2026-05-08 20:52 47.68653 2.06239 31211 ft 479 kts 199°
2026-05-08 20:53 47.65555 2.04677 31562 ft 476 kts 202°
2026-05-08 20:53 47.62511 2.02748 31891 ft 474 kts 207°
2026-05-08 20:53 47.59608 2.00391 31961 ft 477 kts 213°
2026-05-08 20:54 47.53992 1.95146 32005 ft 476 kts 213°